Regional Weather Roundup
Issued by NWS

Home | Current Version | Previous Version | Text Only | Print | Product List | Glossary Off
Versions: 1 2 3 4 5 6 7 8 9 10 11 12 13 14 15 16 17 18 19 20 21 22 23 24 25 26 27 28 29 30 31 32 33 34 35 36 37 38 39 40 41 42 43 44 45 46 47 48 49 50

000
ASUS44 KMEG 161210
RWRTN
TENNESSEE HOURLY STATE WEATHER ROUNDUP
NATIONAL WEATHER SERVICE MEMPHIS TN
600 AM CST SAT DEC 16 2017

TNZ002-004-019-021-049-052-054-088>092-161300-
WEST TENNESSEE

CITY           SKY/WX    TMP DP  RH WIND       PRES   REMARKS
MEMPHIS INTL   CLOUDY    34  27  75 S9        30.20R WCI  27
NWS MEMPHIS      N/A     36 N/A N/A MISG        N/A
JACKSON        CLOUDY    34  27  75 SW10      30.20R WCI  26
DYERSBURG      CLOUDY    33  26  75 S5        30.18R WCI  29
SOMERVILLE     PTCLDY    34  27  75 S7        30.18S WCI  28
COVINGTON      PTCLDY    32  27  80 S9        30.19R WCI  24
UNION CITY     CLEAR     28  25  86 S9        30.16S WCI  20
BOLIVAR        PTCLDY    32  25  74 CALM      30.20R
PARIS          PTCLDY    28  25  86 S8        30.16S WCI  20
HUNTINGDON     PTCLDY    32  25  74 S5        30.17S WCI  27
LEXINGTON      CLEAR     30  25  80 CALM      30.21R
SELMER         CLEAR     30  25  80 VRB5      30.21R WCI  25
SAVANNAH       CLEAR     32  27  80 S6        30.23R WCI  26
$$

TNZ008-025-027-028-033-062-065-066-161300-
NORTH MIDDLE TENNESSEE

CITY           SKY/WX    TMP DP  RH WIND       PRES   REMARKS
NASHVILLE      CLOUDY    29  23  78 S3        30.22R
PORTLAND       CLEAR     28  25  86 S13       30.18R WCI  18
CLARKSVILLE    CLEAR     32  24  72 S9        30.18R WCI  24
SMYRNA         CLOUDY    26  22  84 SE7       30.24S WCI  18
COOKEVILLE     MOCLDY    19  18  93 CALM      30.22R
GALLATIN       CLEAR     23  21  93 CALM      30.25R
CROSSVILLE     CLOUDY    23  20  88 S5        30.20R WCI  17
$$

TNZ061-075-076-078-094-096-097-161300-
SOUTH MIDDLE TENNESSEE

CITY           SKY/WX    TMP DP  RH WIND       PRES   REMARKS
FAYETTEVILLE   CLEAR     25  23  93 S5        30.23R WCI  19
TULLAHOMA      MOCLDY    21  19  93 CALM      30.23R
WINCHESTER     CLEAR     21  19  93 CALM      30.25R
MCMINNVILLE    MOCLDY    21  19  93 CALM      30.23R
COLUMBIA       PTCLDY    27  25  93 CALM      30.21R
SHELBYVILLE    CLEAR     23  21  93 E5        30.24R WCI  17
$$

TNZ017-018-042-046-047-161300-
NORTHEAST TENNESSEE

CITY           SKY/WX    TMP DP  RH WIND       PRES   REMARKS
TRI CITIES     CLOUDY    22  20  92 CALM      30.22R
ELIZABETHTON     N/A     23  19  86 CALM      30.23R
$$

TNZ012-013-036-069-073-074-161300-
CENTRAL EAST TENNESSEE

CITY           SKY/WX    TMP DP  RH WIND       PRES   REMARKS
KNOXVILLE      CLOUDY    24  23  96 CALM      30.25R
OAK RIDGE      CLOUDY    24  21  88 CALM      30.27R
DOWNTOWN KNOXV   N/A     23  23 100 CALM      30.27R FOG
GATLINBURG     CLOUDY    21  19  93 CALM      30.26R
MORRISTOWN     CLOUDY    23  21  93 S3        30.22S
JACKSBORO      CLEAR     21  19  93 CALM      30.28R
$$

TNZ083-085-099-161300-
SOUTHEAST TENNESSEE

CITY           SKY/WX    TMP DP  RH WIND       PRES   REMARKS
CHATTANOOGA    CLOUDY    23  20  88 CALM      30.28R
DAYTON         FOG       21  21 100 CALM      30.27R VSB 1/4
$$

SKY/WX REPORTED AS FAIR MEANS FEW OR NO CLOUDS BELOW
12 THOUSAND FEET.





USA.gov is the U.S. government's official web portal to all federal, state and local government web resources and services.